Theta_e
324 323 323 322 323 323 323 321 323 323 320 320 318 313 308 305 305 305 304 304 304 304 303 303 304 304 304 304 304 304 304 304 304 304 305 305 308 308 310 313 317 319 319 320 320 320 320 320 320 320 320 320 320 320 320 321 321 320 320 319 320 320 319 319 319 319 319 319 320 320 320 321 321 321 322 323 323 324 325 325 326 327 328 329 329
323 323 321 321 322 323 323 323 322 321 319 316 314 310 306 304 304 304 303 303 302 303 302 303 303 303 303 304 303 302 305 303 304 303 304 305 306 307 308 311 314 318 318 319 319 319 319 319 319 319 319 319 319 319 319 321 320 319 319 318 318 319 318 318 318 318 317 317 318 318 319 320 320 320 320 321 322 322 323 323 324 325 326 326 327
323 322 321 321 320 321 321 320 319 317 315 313 311 308 305 304 303 302 303 303 302 302 301 302 303 302 302 303 303 302 302 303 303 304 303 304 306 307 310 309 312 315 316 317 318 318 318 318 318 318 318 318 317 318 319 319 319 318 317 317 317 318 317 317 317 317 316 317 318 317 318 318 319 319 319 320 321 321 321 322 322 323 323 324 325
322 321 320 320 319 320 319 318 316 315 313 311 308 306 304 304 305 305 304 303 302 301 303 301 301 301 302 303 302 301 300 303 302 302 303 305 305 306 309 310 309 311 313 316 317 318 318 318 318 317 317 317 317 317 318 317 317 316 316 316 316 316 316 316 315 316 316 316 316 317 317 318 317 318 318 318 319 319 319 320 320 321 322 322 322
321 320 319 319 318 318 317 316 315 313 312 310 308 306 304 304 304 304 303 303 302 301 304 301 300 301 300 300 301 301 301 302 303 302 302 303 304 304 308 310 309 307 308 310 314 315 316 316 316 316 317 316 316 316 316 316 315 316 315 315 315 315 316 315 314 314 315 315 316 316 316 316 316 317 317 317 318 318 318 318 319 319 320 320 321
321 320 318 317 317 316 315 315 314 312 310 308 305 304 303 303 303 302 302 301 300 301 299 300 300 300 300 300 301 301 301 301 301 302 302 303 303 306 305 308 309 308 306 305 307 311 314 314 315 316 316 316 316 316 316 315 315 314 314 314 314 314 314 314 314 314 314 314 314 314 315 315 315 315 316 316 316 317 317 317 317 318 318 319 319
320 318 316 315 315 314 314 313 313 311 307 306 305 303 302 301 300 299 300 300 300 299 298 299 299 298 299 299 300 301 300 300 301 302 301 303 302 304 305 305 307 307 307 305 303 304 309 311 313 314 314 315 315 314 314 314 314 313 314 314 313 313 313 313 313 313 313 313 313 313 313 314 314 314 315 315 316 316 316 316 317 317 317 317 318
319 317 315 314 313 312 313 312 312 308 307 306 304 301 301 301 300 300 298 298 299 298 298 299 299 299 299 298 299 299 299 300 300 300 301 301 302 302 303 303 305 304 303 303 302 301 304 306 309 310 311 312 314 314 313 313 313 313 313 312 312 312 312 311 312 312 312 311 311 311 312 312 313 313 313 314 314 314 315 315 316 316 316 316 317
318 316 315 313 312 311 311 312 309 307 306 304 302 301 301 302 299 300 300 299 299 299 298 299 299 299 299 299 300 299 300 300 299 299 301 301 301 301 302 302 299 299 300 299 298 299 300 302 303 304 306 308 311 313 312 312 313 313 312 312 311 311 311 310 311 311 310 310 310 311 311 312 312 312 313 312 313 313 313 314 314 314 314 314 315
316 315 314 313 311 310 310 310 307 306 305 303 302 301 302 301 299 300 299 299 298 298 297 298 300 299 298 298 298 298 299 299 299 298 298 299 300 300 300 299 298 300 299 300 299 297 298 298 299 300 300 304 309 311 312 311 311 312 312 312 311 311 310 310 310 310 309 310 310 310 310 310 311 311 311 312 312 312 312 312 312 312 312 313 313
315 313 312 311 309 308 308 308 306 305 304 302 301 301 301 301 300 300 300 300 299 299 297 299 299 298 298 297 298 298 299 299 298 297 298 300 299 299 301 298 298 298 298 298 297 297 298 298 298 298 297 299 304 307 310 312 313 311 311 311 311 311 310 309 309 308 308 309 309 309 309 310 310 311 310 310 311 310 310 311 311 311 311 311 312
314 312 311 309 308 307 306 306 305 304 303 301 299 299 300 300 300 300 299 300 300 299 299 298 297 296 296 296 297 297 297 296 297 298 299 299 298 298 297 298 297 297 297 298 296 297 297 299 297 297 295 295 298 301 305 307 309 313 311 311 311 310 309 308 308 308 308 308 308 308 308 309 309 309 309 309 309 309 309 309 310 310 311 311 312
313 312 310 308 307 306 305 305 303 303 302 301 300 301 301 300 300 299 299 298 298 299 299 298 295 293 294 295 295 295 295 295 295 297 297 297 296 295 296 296 296 296 296 297 296 296 297 297 297 299 295 296 294 297 300 303 304 310 311 310 310 310 309 309 308 308 306 306 306 306 307 307 307 307 307 308 308 309 309 309 309 310 310 310 311
311 311 309 309 306 305 304 303 302 301 302 302 301 300 301 300 300 297 299 297 297 299 298 296 293 292 291 292 293 293 294 294 294 294 296 296 296 296 296 295 295 295 295 295 295 295 295 296 298 297 298 297 295 296 300 302 299 303 309 312 310 309 308 308 307 306 305 305 305 305 305 306 306 306 306 307 307 308 308 309 309 309 310 310 311
310 310 309 308 306 304 303 303 301 301 300 300 300 300 300 299 299 296 295 297 296 299 297 296 293 295 295 293 290 290 292 291 293 293 294 295 295 295 295 295 294 295 294 294 293 293 294 295 295 295 295 297 297 297 297 296 295 298 302 304 308 309 308 307 306 305 305 304 304 304 304 305 305 305 306 306 306 307 308 308 308 308 309 309 310
309 308 307 307 306 304 303 302 301 301 300 299 300 300 299 299 299 298 297 293 294 295 298 296 296 294 291 291 292 291 289 289 290 292 293 294 294 294 294 294 294 295 294 293 293 293 293 293 294 294 294 295 295 295 297 296 295 294 295 297 301 305 306 305 306 305 304 303 303 303 304 304 304 305 305 305 306 306 307 307 307 307 308 309 309
308 307 306 306 306 304 303 301 301 300 300 299 300 299 299 299 298 297 296 294 293 295 296 297 298 299 296 292 293 291 291 295 291 290 292 291 293 293 294 294 293 292 292 293 294 293 293 293 293 294 294 294 295 296 296 295 296 295 294 293 296 299 303 304 304 303 302 302 302 303 303 303 303 304 304 304 304 304 305 306 306 307 307 307 308
308 307 306 305 305 304 303 301 300 299 299 299 300 300 299 298 298 297 297 297 296 294 294 295 297 300 301 301 301 293 293 293 292 288 290 292 292 293 293 293 293 292 292 293 293 293 292 292 293 292 293 294 294 294 295 296 297 296 295 295 296 297 298 300 302 302 302 301 301 302 303 303 303 303 303 303 303 304 305 306 306 306 306 307 307
307 307 306 305 304 304 303 301 300 300 299 298 298 299 299 299 299 297 297 297 298 294 293 293 295 298 300 300 297 296 298 293 291 292 286 289 291 291 291 293 293 292 292 292 292 292 292 292 292 292 292 293 293 294 294 296 296 295 295 296 297 297 296 296 297 299 300 300 300 301 302 302 302 302 301 302 303 303 304 305 305 305 305 306 306
306 306 305 304 303 303 303 302 300 300 299 298 298 299 300 300 299 297 298 296 296 295 294 294 291 292 295 296 296 297 296 298 303 296 294 287 287 292 292 292 292 292 292 292 292 292 292 291 292 292 292 292 293 293 293 295 294 293 293 294 295 296 296 295 295 295 296 298 299 300 300 300 300 300 300 301 302 303 304 304 304 304 304 305 306
305 305 305 304 302 302 302 301 300 299 298 298 298 299 299 299 298 297 296 296 296 296 296 294 292 292 293 293 295 294 294 296 299 299 296 292 291 288 288 292 291 291 291 292 293 293 293 292 292 292 291 291 292 292 292 293 293 293 293 293 294 295 295 295 294 294 294 295 296 297 298 299 299 299 299 300 301 302 303 303 303 304 304 305 305
303 303 303 303 302 302 301 301 300 299 298 298 298 298 299 299 298 297 296 296 296 296 296 296 294 293 293 293 292 292 293 293 293 293 295 296 292 288 290 288 286 289 291 291 292 292 293 292 291 291 291 291 291 292 292 293 294 292 291 291 292 292 292 292 293 293 294 293 294 294 295 296 297 297 298 300 301 301 302 302 302 303 303 304 304
301 301 302 302 302 302 301 301 301 300 298 298 297 298 299 299 299 298 297 296 296 296 296 297 296 294 295 293 292 292 291 290 290 291 291 291 291 293 292 290 290 289 290 291 291 292 292 291 290 290 291 291 291 291 291 292 293 291 290 291 291 291 292 292 292 292 293 293 293 293 293 293 294 295 297 298 300 301 301 301 301 301 302 302 302
300 300 300 301 301 301 301 300 300 299 299 298 297 297 298 299 298 297 296 297 297 295 296 296 297 295 295 295 294 294 293 293 294 293 292 291 292 290 293 292 292 292 292 291 292 291 291 290 290 290 290 290 290 291 291 292 290 290 289 289 290 291 292 292 291 291 292 292 292 292 292 292 292 293 295 296 298 299 300 300 300 301 301 301 301
299 299 299 300 300 299 300 299 299 299 299 299 298 298 297 297 297 297 296 296 295 295 295 295 296 296 295 296 295 295 294 295 295 295 295 294 293 290 293 293 290 290 289 290 288 290 291 290 290 290 290 290 291 291 291 292 288 288 288 288 289 289 289 289 289 290 290 291 291 291 291 292 292 293 294 295 296 298 298 299 299 300 300 300 300
299 299 299 300 300 300 300 299 299 299 299 299 298 298 297 296 296 296 296 296 295 295 294 295 295 296 296 296 295 294 295 295 295 296 294 293 291 291 292 291 292 289 288 287 289 286 288 290 290 290 290 290 290 290 291 291 288 288 288 287 287 288 288 289 289 289 290 290 290 290 290 290 291 292 293 295 295 295 297 298 298 299 298 298 298
300 300 300 300 299 299 299 299 299 299 299 298 298 298 297 296 296 296 295 295 295 294 294 293 293 294 295 295 295 295 295 295 295 295 296 295 293 292 292 288 288 288 285 286 287 286 287 288 290 289 290 289 290 290 291 291 288 288 287 287 287 286 287 288 289 289 289 290 290 290 290 290 290 291 292 293 294 295 295 296 297 297 297 297 296
299 300 301 300 299 299 299 298 299 299 298 298 297 297 297 296 295 294 294 295 294 293 293 293 293 293 293 294 293 293 294 294 295 295 296 296 295 295 293 291 287 285 286 284 285 285 289 285 288 289 289 289 290 290 290 290 287 288 286 286 287 285 287 287 287 288 289 289 290 290 290 290 290 291 292 292 292 293 293 294 294 294 293 294 294
298 299 299 300 299 299 298 298 298 298 298 297 297 296 296 295 294 294 293 294 293 293 293 292 292 293 293 293 293 293 293 293 293 294 295 295 295 294 294 292 291 288 285 284 284 284 286 287 285 286 289 289 289 290 289 289 287 286 284 286 287 287 287 287 287 287 289 290 290 290 289 289 290 290 291 291 292 292 292 293 293 293 293 293 293
297 298 298 298 299 297 297 297 297 297 297 297 296 296 295 294 294 294 293 294 293 293 293 292 292 292 292 292 292 291 292 292 292 293 293 293 293 293 293 293 293 289 288 285 285 286 286 288 287 285 287 287 289 289 288 288 288 285 285 286 287 286 287 286 286 287 288 289 290 289 289 289 289 290 290 291 291 291 292 292 292 292 293 293 293
295 296 296 296 296 297 297 296 296 296 296 296 295 295 295 294 294 293 293 293 292 292 292 292 292 291 291 290 291 291 291 291 291 292 292 292 292 292 292 293 292 291 290 289 287 288 289 286 287 287 286 287 288 287 287 287 287 286 287 286 286 287 286 285 285 286 287 288 289 288 289 289 289 289 290 290 291 291 292 292 292 291 292 292 293
293 294 294 294 295 295 295 295 295 295 295 295 295 294 294 293 293 292 292 292 291 291 291 291 291 291 290 290 290 290 291 290 290 291 291 291 291 291 291 291 291 291 290 289 288 287 289 287 287 287 287 286 287 285 285 286 285 286 286 286 286 285 282 282 284 285 286 287 288 288 288 289 289 289 290 290 290 291 291 291 291 291 291 291 293
292 292 292 293 293 294 294 294 294 294 294 294 294 294 293 292 292 292 292 291 291 291 291 290 291 290 290 289 289 290 290 289 289 290 290 290 290 290 290 290 290 290 290 289 287 286 285 287 287 286 286 286 285 285 284 284 282 283 285 285 284 283 283 283 284 285 286 286 287 287 288 288 289 290 290 290 290 290 290 290 290 290 291 291 292
291 291 291 292 292 292 292 293 293 294 294 294 293 293 292 292 291 292 291 291 290 290 290 289 290 290 290 289 289 289 289 289 289 289 289 289 289 288 288 289 289 289 290 289 288 287 282 284 285 285 285 286 283 285 283 283 282 282 281 282 283 282 282 282 283 284 285 286 286 286 287 288 289 290 290 290 290 290 290 290 290 290 291 291 291
290 290 290 291 291 291 291 292 292 292 293 293 293 292 292 291 291 291 291 290 289 289 289 289 289 289 289 288 288 288 289 288 288 288 288 288 288 288 287 288 288 288 288 289 287 286 284 282 284 283 283 284 283 283 284 284 283 282 281 281 281 282 283 282 282 283 285 286 286 286 287 287 288 289 290 290 290 290 289 289 290 290 290 290 290
288 289 289 289 290 290 290 290 290 291 291 292 292 292 291 291 290 290 290 289 289 289 289 288 289 288 288 287 288 288 288 287 287 287 287 288 287 287 287 287 287 287 287 287 287 286 285 282 283 282 283 282 283 284 284 284 283 282 282 282 282 282 282 283 282 282 284 287 287 287 287 287 288 289 289 289 289 289 289 289 289 289 289 289 289
289 288 288 288 288 288 288 289 289 289 289 290 290 290 291 290 290 290 289 289 289 289 288 288 288 288 288 287 287 287 287 286 286 286 286 286 287 286 286 286 286 287 286 286 286 286 284 283 282 282 283 282 283 283 283 281 281 281 281 281 281 281 281 282 282 283 284 286 286 286 286 287 287 288 288 289 289 289 288 288 289 289 288 288 288
288 288 288 288 287 287 287 287 287 288 288 288 288 289 289 289 289 289 289 289 288 288 288 288 288 288 288 287 287 287 286 286 286 286 286 285 286 285 285 285 286 285 285 284 285 284 284 283 282 280 281 280 280 281 282 281 280 279 279 280 280 281 281 281 281 283 283 283 283 283 284 285 286 287 287 288 288 288 288 288 288 288 288 287 287
287 287 287 288 288 288 288 288 287 287 287 287 287 287 288 288 288 288 288 288 288 288 288 288 288 288 288 287 287 287 286 286 286 286 285 285 285 284 285 285 285 284 284 284 283 283 283 282 281 281 280 281 281 279 280 281 280 280 278 278 278 280 281 280 280 282 282 282 283 284 284 283 283 284 285 286 287 287 287 287 287 287 287 286 286
286 286 286 286 287 287 287 287 288 288 287 286 286 287 288 288 287 287 287 287 287 287 287 288 288 287 287 287 287 287 287 287 286 286 286 285 285 284 284 284 284 284 283 283 283 282 282 282 281 280 280 279 279 280 280 279 278 279 280 279 277 278 279 280 280 281 281 281 281 281 283 284 284 285 285 286 286 287 286 286 286 286 285 285 285
287 286 286 286 286 286 287 287 287 287 287 287 287 286 286 286 287 287 287 287 287 286 286 287 287 287 287 287 287 287 287 286 287 287 287 287 285 284 284 284 284 283 283 283 283 282 282 282 281 280 279 278 278 278 277 277 277 277 279 280 279 279 280 279 280 282 282 280 280 281 281 281 280 280 281 281 282 284 284 284 283 283 284 284 284
286 286 286 285 285 285 286 286 286 287 287 288 287 288 288 286 286 286 286 286 286 286 286 286 286 286 286 286 287 286 286 286 286 287 287 288 287 286 285 284 284 283 283 283 283 282 282 281 282 280 279 278 278 278 277 278 279 279 279 279 278 280 280 279 280 280 282 281 280 279 280 282 280 280 281 280 281 282 280 281 281 282 283 284 284
285 285 285 285 285 285 285 285 285 286 287 287 288 290 290 290 288 286 285 285 286 285 285 285 285 286 286 286 286 286 285 285 285 286 287 288 287 288 287 287 286 284 283 282 282 283 282 281 282 281 280 279 279 279 279 278 279 278 279 279 279 280 278 277 276 279 281 280 279 279 280 282 281 279 279 279 279 280 280 280 283 283 283 284 284
284 284 284 284 284 284 284 284 284 285 285 287 288 289 289 289 289 287 286 286 285 285 285 285 285 285 285 286 286 286 285 285 285 285 286 287 287 287 287 287 287 287 287 284 283 282 282 282 281 281 281 280 280 279 279 279 278 279 279 279 279 279 278 277 277 277 279 281 279 278 278 280 280 278 277 278 279 279 280 281 283 283 284 285 285
284 283 283 283 283 284 284 283 283 284 285 287 287 288 288 288 288 288 287 286 286 285 285 285 285 285 285 285 285 285 286 285 285 284 284 284 286 287 287 287 287 287 288 288 288 285 284 283 282 282 282 281 280 279 280 280 281 278 280 279 279 279 279 278 279 278 279 281 279 278 277 278 278 277 276 278 279 279 280 282 283 283 284 284 284
283 282 282 282 283 283 283 283 283 283 283 285 287 287 287 288 288 288 286 286 286 286 286 285 285 285 285 285 284 284 285 285 285 284 284 283 283 283 284 284 284 285 286 287 287 287 286 284 283 282 283 283 281 281 281 282 280 279 279 279 280 279 279 279 279 278 279 280 277 277 275 276 276 275 275 277 279 279 279 280 282 283 283 284 284
281 280 281 281 282 282 282 282 282 282 283 285 286 287 287 287 287 287 286 286 286 286 286 286 286 285 285 285 285 284 284 284 284 284 283 283 283 282 283 283 283 283 283 283 284 284 284 284 283 283 284 283 283 282 282 282 281 281 281 280 280 280 279 279 278 278 277 278 277 277 272 276 277 275 275 276 279 278 278 280 281 282 282 283 283
280 280 280 280 280 280 280 281 281 281 282 285 285 286 287 287 287 285 285 285 285 285 285 286 286 286 286 285 285 284 284 284 285 287 286 284 282 282 281 282 282 283 283 284 286 286 284 284 283 283 283 283 285 282 282 282 282 282 281 280 279 278 277 276 274 276 274 277 277 275 274 274 276 275 275 277 277 276 277 277 280 281 282 282 283
278 278 277 277 278 279 279 279 279 280 281 283 285 285 286 286 286 284 284 284 284 284 285 285 286 286 286 286 285 285 284 284 286 287 287 286 282 281 281 280 281 281 282 283 285 286 287 286 285 285 285 286 286 286 286 286 283 282 279 277 276 277 275 274 274 274 273 276 276 276 275 273 275 274 274 275 276 276 276 276 277 279 280 281 282
276 276 276 276 276 277 278 278 279 279 280 282 284 284 285 285 285 283 283 283 283 283 284 285 285 286 286 286 285 285 284 284 286 287 287 286 282 281 281 280 280 280 281 282 282 283 286 285 284 284 285 285 286 286 286 286 285 283 278 276 276 276 275 275 273 274 274 275 274 276 273 272 275 275 273 275 275 275 275 276 277 277 279 279 280
274 275 275 274 274 275 276 277 279 279 280 281 283 283 284 285 284 283 283 282 282 282 283 283 285 285 285 286 285 285 285 285 286 287 287 286 283 282 281 280 279 279 280 281 280 280 281 280 280 281 281 284 283 283 284 285 285 283 280 279 278 276 275 275 274 273 271 272 275 276 271 272 272 273 273 271 270 274 276 275 276 277 278 278 278
Wind_Speed
9 9 9 9 8 9 8 8 8 8 8 7 7 6 6 5 5 5 4 4 4 3 3 3 2 2 2 2 1 2 2 1 2 2 1 1 3 4 7 8 9 7 3 2 1 2 2 2 1 1 1 2 3 1 1 2 6 5 5 3 4 6 6 5 6 7 7 7 6 7 8 8 8 8 9 9 9 9 9 10 10 11 11 12 12
9 9 9 9 9 9 8 8 8 7 8 7 6 6 5 5 5 5 5 4 4 4 3 3 2 2 2 2 1 1 1 1 1 1 1 1 2 4 5 7 8 8 5 3 1 0 1 2 2 2 2 3 2 1 1 3 5 5 4 3 3 5 5 5 6 6 6 6 5 6 6 7 8 8 9 9 9 10 10 10 11 11 12 12 12
9 10 9 9 9 9 8 8 8 7 7 6 6 6 5 5 5 5 5 4 4 4 3 4 3 2 2 2 1 1 1 1 1 1 1 1 2 3 3 6 9 10 6 6 5 2 1 1 2 1 3 3 2 2 2 3 5 3 3 3 3 5 5 5 5 5 5 6 5 5 6 7 7 8 8 9 9 10 10 10 11 11 12 12 12
10 10 10 9 9 9 8 8 8 7 7 6 6 5 5 4 5 4 4 4 4 4 3 4 3 3 2 2 1 0 1 1 1 1 1 2 1 2 3 3 9 11 12 10 8 8 6 5 4 1 0 1 1 1 2 1 2 2 1 2 2 3 4 5 4 4 5 5 5 5 6 7 7 7 8 8 9 10 10 10 10 11 11 12 13
10 10 10 9 9 9 9 8 8 7 7 7 7 5 5 5 5 4 4 4 4 4 3 3 4 3 3 2 2 1 1 1 1 1 1 1 1 1 2 3 5 9 11 12 13 9 7 6 5 2 1 2 2 1 2 1 1 1 1 1 1 2 4 3 3 4 5 5 5 5 6 6 6 7 7 7 8 9 9 10 10 11 12 12 12
9 10 9 9 9 9 9 8 7 7 7 7 7 6 6 6 6 5 5 5 5 5 5 4 4 4 3 3 2 2 1 1 1 1 1 1 1 1 2 3 3 3 4 10 12 13 10 8 7 7 6 4 3 2 2 2 1 0 2 1 1 2 3 2 3 4 4 4 5 5 5 5 6 6 7 8 7 8 9 10 10 10 11 11 11
10 9 10 9 9 8 9 7 7 7 7 6 7 6 6 7 6 6 6 5 5 5 5 4 4 4 3 3 2 2 2 2 1 2 1 1 2 2 1 2 2 3 3 3 7 11 12 11 10 9 9 8 5 3 3 3 2 1 1 1 2 2 2 3 4 3 4 4 5 5 4 5 6 6 7 7 7 8 9 9 9 10 10 10 10
11 10 9 9 8 8 8 8 9 7 7 7 7 7 7 6 7 7 7 6 6 5 4 4 4 4 3 3 2 3 2 2 2 3 2 2 2 2 2 2 2 2 1 2 4 6 11 11 11 11 10 9 8 5 1 2 2 2 3 2 2 1 2 3 3 4 4 4 4 4 4 5 5 6 6 6 7 7 8 8 9 9 10 10 10
11 11 9 9 8 8 8 9 8 8 7 7 7 7 7 6 7 6 6 7 6 6 5 5 4 4 3 3 2 2 2 2 3 3 2 2 2 3 2 2 3 3 1 2 3 3 7 10 11 12 12 9 8 7 3 1 3 3 2 3 3 2 3 1 3 3 3 3 3 4 4 5 5 5 6 7 7 7 7 8 8 9 9 8 9
11 11 9 9 8 8 8 9 8 8 7 7 8 7 7 7 7 7 7 7 7 7 6 5 4 4 4 3 3 2 1 2 2 3 3 3 3 3 3 3 3 2 2 1 2 2 3 5 7 10 12 10 8 8 6 3 0 3 4 4 4 3 2 3 3 3 2 3 3 4 4 4 5 6 6 7 7 7 7 7 7 7 7 8 7
11 11 10 9 9 8 8 9 8 8 7 8 8 8 7 8 7 7 6 5 5 6 6 5 5 4 3 3 2 1 1 1 2 2 2 3 3 3 2 3 3 2 2 2 1 2 1 2 1 2 4 10 9 9 9 10 11 4 4 5 5 5 4 3 2 3 2 3 3 3 4 4 5 6 5 6 6 6 6 6 6 5 5 5 6
11 10 10 9 9 8 8 8 8 8 8 8 9 9 10 10 9 9 8 5 4 6 6 7 6 5 4 3 2 1 1 1 2 2 2 3 3 3 3 2 3 3 2 1 2 2 2 1 1 2 3 4 6 7 8 10 13 13 5 6 7 6 5 3 3 3 3 3 4 4 4 4 4 5 5 5 5 5 5 5 5 5 6 6 7
10 10 10 9 8 8 8 8 8 8 8 9 9 9 9 9 7 7 9 7 5 6 7 7 7 5 3 3 2 2 1 2 3 3 3 3 3 4 3 3 3 3 3 2 3 2 1 1 1 1 2 3 3 2 4 6 12 15 5 6 6 7 4 5 3 4 2 2 2 2 3 4 4 4 5 5 5 5 5 5 6 6 7 7 8
8 9 9 10 9 9 8 8 9 9 8 8 9 8 10 9 8 7 6 9 7 8 8 8 5 6 5 3 3 3 3 3 3 4 4 4 3 4 3 4 4 4 3 3 3 3 2 2 1 1 1 2 2 3 2 1 7 11 13 12 6 5 5 3 3 2 3 3 2 2 3 4 3 4 4 5 5 5 6 6 6 7 7 8 8
8 8 8 10 10 9 8 8 9 8 9 9 10 10 10 12 11 9 8 6 6 7 9 9 6 6 5 4 3 3 3 3 5 6 6 5 4 4 4 4 5 4 4 3 4 4 3 2 2 2 2 2 1 2 2 5 4 10 13 15 12 6 5 5 3 2 2 2 3 3 3 3 4 4 5 5 5 6 6 7 7 7 7 8 8
8 9 7 8 10 10 8 8 9 9 9 10 11 11 11 10 11 11 10 9 8 8 9 10 6 9 7 7 4 4 3 7 7 7 7 6 6 6 5 5 5 4 3 4 4 4 4 4 4 3 3 2 2 3 3 4 6 10 10 13 13 7 4 3 2 2 1 1 2 2 3 3 3 4 5 6 6 6 6 6 7 7 7 7 7
9 10 9 9 9 9 9 8 9 10 9 9 10 11 11 12 13 12 13 11 10 7 9 10 9 8 6 5 2 4 6 2 8 4 6 6 7 6 6 6 6 6 4 4 3 4 4 4 4 4 3 3 2 2 4 5 3 4 7 8 9 10 6 3 3 2 1 1 1 1 2 2 3 5 5 5 5 5 5 5 6 6 7 7 7
8 9 10 9 10 10 9 9 9 9 9 10 9 9 11 12 13 13 13 12 11 8 8 9 11 8 4 2 0 2 4 6 7 3 5 6 5 7 6 7 6 6 5 5 5 4 4 5 4 4 4 4 3 3 4 4 5 4 4 5 8 7 7 6 3 2 1 2 2 1 1 2 3 3 4 5 4 4 4 5 6 6 6 6 6
9 9 9 10 10 9 10 10 9 9 10 10 10 11 10 12 11 12 12 12 10 10 12 10 6 6 6 4 3 3 2 7 4 6 4 4 6 7 7 7 7 7 6 6 7 6 5 5 5 5 5 4 4 4 4 3 6 8 9 8 8 8 7 6 5 4 3 2 1 1 1 1 2 3 3 4 4 4 4 4 5 5 5 5 6
9 9 9 10 9 9 9 9 9 9 9 10 11 9 7 9 11 13 10 12 13 11 11 11 13 11 11 5 4 2 3 3 2 4 4 6 6 5 6 8 7 7 7 7 8 7 6 5 5 5 5 5 4 4 4 5 5 6 5 7 8 8 7 6 5 4 3 3 2 1 1 0 2 2 2 3 3 4 4 4 4 5 5 6 6
9 9 9 9 9 10 9 9 9 9 9 8 10 9 11 11 12 12 13 12 12 11 10 11 12 10 10 9 7 6 5 4 3 1 3 4 5 9 7 6 6 7 8 8 7 6 6 6 6 6 6 6 5 5 5 6 6 6 6 7 7 7 7 7 5 4 3 2 3 2 2 2 2 2 3 2 3 3 3 4 4 5 5 5 5
8 9 8 9 9 10 9 10 10 10 8 9 10 10 10 10 12 13 13 12 11 12 12 10 12 12 12 10 11 8 6 5 4 4 3 4 3 8 8 11 9 8 8 9 9 7 7 6 6 6 6 6 6 6 6 7 6 7 8 9 7 7 7 6 5 4 3 2 2 2 2 2 1 2 2 2 3 3 3 3 4 4 4 4 4
6 7 9 9 10 9 9 10 10 9 9 9 10 10 8 8 9 12 12 13 11 11 11 10 9 12 11 11 13 14 14 12 12 9 8 5 4 5 7 9 8 6 9 9 8 8 7 6 6 6 6 6 7 6 7 7 7 10 14 10 9 8 7 6 6 4 3 2 1 1 1 1 1 3 3 2 2 2 2 2 3 3 3 3 4
5 6 7 9 8 9 9 10 9 10 11 9 9 9 8 7 8 9 10 12 12 10 10 12 10 9 12 10 12 12 12 11 10 10 9 9 8 6 6 6 5 4 5 7 7 8 7 7 7 7 7 6 7 7 7 6 7 16 10 11 9 8 7 7 6 5 4 3 2 2 2 2 2 3 4 3 3 2 2 2 2 3 3 3 4
5 6 7 8 8 8 9 9 9 10 10 9 9 11 10 9 8 10 12 13 13 13 12 14 13 11 10 11 10 10 12 10 9 8 8 7 7 7 4 8 5 4 4 7 5 6 6 7 7 7 7 7 6 7 7 7 7 11 11 8 10 7 6 7 6 5 5 5 4 4 3 3 3 3 4 4 3 3 3 3 2 3 3 3 4
6 6 6 6 7 8 8 9 10 9 9 10 10 10 11 10 10 11 12 12 12 15 13 13 13 13 9 8 11 10 10 9 10 8 8 7 7 8 3 2 2 5 3 5 6 5 6 7 7 7 7 7 7 7 7 7 8 14 13 7 9 9 7 6 6 5 5 5 5 4 5 4 5 4 4 5 4 4 4 4 4 4 3 4 4
6 5 5 6 7 7 8 8 9 9 9 9 8 10 10 10 10 10 10 11 12 13 13 14 13 14 13 11 10 10 9 9 10 10 8 9 9 8 7 6 1 3 4 4 5 9 6 6 7 8 8 8 7 8 8 7 9 16 10 6 6 11 7 7 5 5 5 5 5 6 6 6 6 6 6 5 5 5 5 5 5 4 4 4 5
7 7 5 5 5 6 7 8 9 8 9 9 9 9 9 10 10 10 11 8 11 13 13 13 15 14 14 14 11 11 10 9 9 10 9 8 9 7 7 8 9 6 5 5 7 7 7 6 5 8 8 8 8 7 9 9 8 16 12 7 6 8 11 8 7 6 6 7 7 7 7 7 8 8 7 6 6 6 5 5 5 4 4 5 5
5 6 7 5 5 6 7 8 8 8 8 9 8 8 8 9 10 10 11 10 11 13 12 13 13 13 13 14 14 12 11 10 9 9 8 8 7 7 8 10 8 9 6 8 9 7 8 10 7 9 10 9 8 8 9 8 10 12 8 8 6 6 12 11 8 7 9 9 9 9 8 8 9 8 8 7 7 6 7 7 5 5 5 5 6
6 5 6 6 6 6 7 6 6 7 8 8 7 7 7 8 9 10 10 8 11 11 11 12 12 11 13 12 12 12 11 10 11 10 10 10 8 8 9 8 8 11 8 8 8 8 6 8 6 7 10 10 9 8 8 8 14 13 9 8 6 5 12 11 8 8 9 11 10 10 10 10 10 9 9 8 7 7 7 7 6 6 6 6 6
7 6 5 5 6 6 5 6 6 6 7 7 7 7 8 9 9 9 9 10 10 11 11 11 11 11 12 14 13 12 11 11 11 10 10 10 9 8 8 8 8 10 10 7 6 4 9 10 8 7 11 10 8 8 7 7 11 13 8 6 6 7 10 6 8 9 11 12 11 11 11 10 10 10 10 9 8 8 8 8 7 6 6 6 7
5 5 5 5 5 6 5 6 7 7 7 7 7 7 7 9 9 8 9 10 12 12 11 10 10 11 13 14 14 13 12 11 11 10 10 11 10 9 9 9 9 9 8 8 10 3 1 5 7 7 11 11 9 9 8 5 8 13 7 6 6 9 4 3 8 11 12 13 12 11 11 11 11 11 10 9 9 9 9 8 8 7 7 7 7
6 6 5 4 5 5 6 6 6 7 7 7 7 7 8 8 8 9 9 10 12 12 11 12 11 12 13 14 14 14 12 13 12 10 11 11 10 10 9 9 10 9 9 10 10 5 1 2 5 6 9 10 8 8 9 7 7 8 7 5 6 5 4 3 3 9 13 12 12 12 11 11 11 11 11 10 10 10 9 9 9 8 8 8 8
6 7 6 4 3 4 5 6 7 7 7 7 7 7 8 8 9 7 8 10 11 12 11 13 12 11 12 15 16 14 11 13 13 13 12 11 11 11 11 10 10 9 9 9 10 8 6 3 4 5 7 8 8 8 10 9 8 7 7 5 4 4 4 3 3 3 12 12 12 11 11 12 12 12 12 11 11 10 10 10 9 9 9 9 8
7 6 6 6 5 5 5 5 6 7 7 8 6 7 8 9 9 9 9 10 11 12 12 14 13 12 13 15 16 14 10 13 14 14 12 13 12 13 14 11 12 11 10 10 9 10 8 7 6 8 8 8 8 10 9 7 6 7 8 6 5 4 3 4 3 3 9 13 13 12 12 13 13 13 13 13 11 11 11 10 10 9 9 9 9
7 6 6 6 6 6 6 6 6 7 7 7 7 7 8 8 9 10 10 10 12 13 13 13 13 13 14 14 15 14 12 14 15 14 13 13 13 13 14 13 12 12 10 9 11 10 6 9 7 8 8 9 7 6 6 5 7 7 6 5 4 4 4 4 4 4 7 13 13 13 13 13 14 13 14 13 12 12 11 11 11 10 10 10 10
6 6 6 6 6 6 5 6 7 7 7 7 7 7 7 7 9 10 10 10 11 12 13 13 13 13 14 15 15 12 12 14 15 14 13 14 13 12 13 13 12 12 9 10 11 10 7 9 7 5 7 6 5 6 8 9 6 5 4 6 6 5 5 5 4 5 8 12 14 14 13 14 14 15 14 13 13 13 12 12 11 11 11 11 10
7 6 7 6 6 7 6 6 6 7 7 7 7 7 7 7 8 9 10 10 11 11 12 13 13 13 14 14 14 12 13 15 16 14 13 14 12 12 14 13 12 11 11 10 10 10 10 6 10 7 8 9 8 7 10 10 9 8 6 5 4 5 5 5 5 4 4 4 4 6 11 13 15 16 15 14 14 13 13 12 12 12 11 11 10
6 7 7 6 6 6 7 6 6 6 7 7 8 8 8 8 9 10 10 10 11 11 11 12 12 13 15 15 14 13 15 16 16 15 14 13 12 15 15 13 12 11 11 11 10 11 11 8 7 9 9 8 9 10 9 9 7 7 8 7 6 6 5 5 6 5 5 5 8 11 9 9 11 10 12 14 14 14 14 13 12 13 12 11 10
7 7 7 7 7 6 6 6 7 6 6 6 7 7 8 9 9 10 10 11 11 12 12 12 12 13 13 14 15 15 15 15 15 14 13 14 12 14 13 12 11 12 12 10 10 11 11 11 9 10 9 10 8 4 6 8 8 7 8 8 8 8 8 8 7 6 6 6 6 6 8 9 9 12 13 13 15 15 14 13 13 12 12 11 10
5 5 6 7 7 7 6 6 6 5 5 6 5 6 6 7 8 10 11 12 12 12 12 12 13 13 13 12 13 13 15 18 20 18 16 14 11 13 13 12 12 12 12 11 10 10 10 11 9 8 9 9 10 11 10 10 14 14 11 9 8 7 6 5 6 7 6 7 6 5 7 7 6 5 5 5 6 11 11 12 9 11 11 11 11
7 6 6 6 6 6 7 7 6 5 5 4 7 12 11 8 8 8 9 10 11 13 13 14 13 13 13 13 12 16 17 19 21 21 20 20 20 17 12 11 12 12 13 12 12 11 11 12 12 11 11 12 13 14 13 13 10 7 9 10 9 8 7 7 5 7 7 7 7 8 7 7 7 6 6 6 4 5 3 4 5 7 8 9 9
8 7 7 8 6 6 7 7 7 6 5 5 8 9 12 16 12 9 9 10 10 12 13 14 15 14 13 13 12 13 15 16 17 20 20 22 22 23 22 18 15 14 13 14 14 13 13 13 12 11 13 14 14 13 12 12 11 13 12 11 10 8 9 10 10 5 8 9 8 6 6 7 7 6 4 5 5 4 5 5 9 10 10 11 10
7 7 9 8 9 8 7 7 7 7 7 8 11 12 13 14 13 10 9 9 9 11 11 13 13 13 13 13 13 10 11 13 13 13 18 22 23 23 23 22 21 21 21 17 15 13 13 14 13 14 13 14 14 12 11 11 12 10 10 11 12 13 11 11 9 9 7 11 9 7 6 6 6 5 5 5 5 5 6 10 12 11 11 11 10
8 8 10 10 10 9 8 9 8 8 8 9 12 14 14 14 16 14 9 9 10 10 12 12 13 13 12 12 12 11 10 15 13 13 13 14 19 23 23 23 24 25 24 26 24 17 14 15 15 16 16 14 13 13 14 14 12 14 13 11 12 12 11 10 10 4 8 11 8 7 7 7 7 6 6 6 6 5 6 10 12 10 9 9 9
7 8 9 10 9 10 9 10 11 10 9 10 14 14 15 16 16 14 8 10 10 11 13 13 12 13 13 12 13 12 11 11 10 12 12 12 11 12 15 16 16 20 24 26 26 26 20 16 16 18 15 13 14 14 14 15 16 15 13 13 13 12 12 12 7 7 7 8 9 6 3 5 6 5 5 4 4 4 4 6 9 9 9 10 9
8 9 10 9 8 9 9 10 10 11 10 15 16 17 17 17 17 15 9 9 10 10 12 12 13 13 13 13 14 15 13 10 11 13 12 10 9 10 12 14 16 16 16 17 19 18 17 15 15 16 12 12 15 12 12 13 15 13 13 14 13 10 6 8 7 6 5 4 4 5 7 5 5 5 5 3 2 3 3 6 8 8 8 9 9
8 9 9 8 10 12 11 10 10 12 13 17 17 17 17 17 18 9 8 9 10 10 11 12 12 12 13 13 14 14 14 13 15 19 16 11 9 11 14 14 14 14 15 15 15 17 18 16 16 15 12 10 11 12 13 13 11 8 8 8 8 9 10 9 9 7 5 6 7 5 4 5 5 5 4 3 2 3 4 3 6 7 7 8 9
10 10 10 10 10 11 12 12 12 13 12 15 17 17 17 17 13 8 9 9 10 11 12 12 11 12 13 13 14 14 15 14 14 16 17 17 11 13 14 15 14 13 15 13 13 17 12 9 12 12 11 12 14 16 18 19 14 12 11 11 12 11 11 11 8 7 7 8 8 8 5 4 5 5 3 3 3 3 3 4 3 6 7 8 9
11 11 10 11 11 11 11 13 12 12 13 15 19 19 20 20 15 10 9 9 10 11 11 12 10 11 13 18 16 14 15 15 17 17 19 17 14 14 14 14 15 16 16 13 8 10 13 11 12 13 13 15 17 19 20 21 21 18 16 17 14 12 13 13 13 9 5 7 7 9 4 4 4 3 2 1 1 2 4 4 4 3 5 5 7
10 10 10 10 12 13 13 14 16 16 14 16 20 22 22 21 15 9 9 9 10 11 11 11 11 10 12 13 18 18 16 15 17 18 22 18 14 14 14 13 16 18 17 12 10 10 10 10 11 10 10 14 13 12 13 22 23 17 14 13 12 14 14 10 9 7 4 6 8 10 7 5 6 1 4 1 1 2 2 3 2 1 1 1 1
Wind_Direction
185 185 184 191 186 185 184 185 181 180 177 182 172 172 174 168 165 165 169 167 158 163 148 143 152 130 115 108 107 79 79 82 84 70 72 103 93 66 17 10 0 1 4 342 243 213 212 215 213 101 143 98 61 54 140 133 99 73 73 74 78 68 67 65 67 65 57 58 58 59 61 60 61 60 60 58 56 51 49 47 48 50 49 49 48
184 185 186 187 185 184 183 180 178 177 177 176 175 174 172 166 165 166 167 165 167 158 156 144 128 121 122 115 100 110 102 88 97 113 113 87 96 110 50 15 12 11 36 26 30 276 251 208 192 163 219 151 91 89 209 176 103 72 69 59 69 70 61 62 60 63 60 57 57 59 57 65 62 61 60 59 56 53 47 44 43 44 46 46 45
185 185 185 184 186 184 184 179 179 176 175 171 169 174 171 170 168 168 168 168 166 152 167 145 142 134 109 117 103 91 79 80 95 98 109 106 102 107 101 45 23 21 38 67 55 52 70 186 168 207 242 192 173 136 228 197 126 105 75 46 55 80 58 54 56 54 61 59 55 58 66 65 62 61 59 56 56 53 48 41 40 41 42 43 42
186 184 184 182 185 183 183 182 181 173 174 169 163 170 168 167 162 170 168 169 154 155 163 152 155 145 128 118 124 108 133 113 115 119 72 79 121 142 136 96 49 37 33 51 64 55 57 60 40 11 261 205 158 155 301 325 102 100 68 79 75 81 72 60 47 58 58 59 57 62 68 65 62 58 58 58 56 52 49 43 40 39 40 41 40
187 185 183 183 183 180 184 185 182 172 173 162 154 157 159 152 155 156 164 164 152 149 151 156 151 142 150 150 153 150 92 167 116 113 122 151 137 143 133 137 101 62 44 38 38 53 61 60 54 65 121 148 149 138 155 94 106 104 125 104 83 92 90 71 50 55 52 59 62 63 54 58 56 59 54 55 54 53 50 46 41 39 39 39 38
187 182 181 183 183 183 184 181 181 167 163 152 158 164 166 162 160 167 169 169 164 157 162 160 155 148 154 150 173 158 157 173 142 115 147 163 163 133 151 162 155 115 77 52 38 34 45 55 64 58 50 65 81 114 116 104 101 123 102 116 98 45 50 35 58 46 55 55 54 47 48 49 51 48 52 50 49 50 49 47 43 40 38 35 36
186 180 182 186 183 182 185 178 174 163 162 164 166 172 172 169 166 176 167 180 169 162 171 167 157 157 154 156 168 147 165 159 129 134 173 159 164 156 162 169 163 124 140 120 67 30 32 45 54 54 52 49 49 58 79 120 142 166 172 161 79 55 34 38 38 47 52 45 47 51 43 52 52 50 53 50 47 46 46 45 43 41 40 38 34
185 182 180 189 186 184 183 178 167 162 166 165 174 174 177 173 174 177 165 180 167 164 172 164 158 153 149 160 145 161 174 165 162 171 165 175 169 163 172 157 168 146 129 124 96 55 37 43 45 45 47 46 41 36 77 123 162 175 161 122 110 50 58 40 42 64 55 57 51 57 51 49 50 49 44 43 44 40 40 40 37 34 35 31 29
183 182 180 187 188 188 184 178 165 166 167 167 178 178 174 172 173 184 177 170 167 163 168 160 151 142 139 140 137 165 173 172 174 160 167 180 156 165 155 113 71 98 157 100 122 117 56 52 48 39 30 38 39 35 30 119 157 151 126 136 133 114 101 105 83 67 72 58 61 54 56 50 45 42 42 40 35 36 36 33 35 28 25 21 19
181 179 180 186 188 188 184 174 162 167 168 169 181 177 174 175 169 181 183 170 168 166 166 155 135 144 139 137 150 179 162 169 167 157 179 168 167 168 159 151 157 165 106 109 101 116 122 84 77 56 31 25 37 35 28 8 258 170 177 154 132 136 117 111 95 81 74 71 64 60 44 45 40 39 36 31 28 28 26 26 24 21 19 12 11
177 177 180 184 188 188 184 169 163 169 169 170 178 181 176 179 174 170 181 177 166 163 162 138 132 127 130 127 126 123 164 167 167 193 167 172 171 152 145 158 143 140 128 130 123 101 122 150 160 103 55 25 23 22 16 10 355 307 194 170 156 146 142 124 123 105 80 74 56 44 45 36 34 30 28 27 23 24 22 18 20 19 17 15 15
178 177 180 182 184 188 183 161 167 171 173 175 180 182 177 177 179 165 163 154 164 156 146 135 128 121 118 110 110 132 165 182 210 188 177 167 170 173 174 159 155 138 130 132 121 121 119 140 111 120 114 69 39 17 11 8 3 341 227 179 165 149 145 143 112 81 58 56 52 39 36 28 29 22 23 12 19 15 14 15 14 15 15 11 14
180 177 184 182 186 185 181 166 168 177 182 186 184 182 176 174 167 164 161 147 156 155 145 141 133 127 133 140 148 159 167 234 206 198 200 184 183 187 171 173 164 153 162 152 126 145 150 152 162 144 134 135 133 87 16 22 11 3 330 220 186 172 157 149 113 86 61 55 50 37 35 16 18 21 14 20 10 12 10 15 11 14 14 10 13
177 182 183 186 187 189 185 170 172 184 188 184 182 177 173 175 163 158 178 167 164 163 157 145 172 171 158 172 187 178 187 216 224 209 207 203 192 187 180 184 170 166 160 146 154 158 169 162 161 155 146 170 147 158 185 62 20 6 21 12 184 167 170 125 125 127 94 44 36 61 33 14 20 14 20 15 14 5 12 11 11 11 11 10 11
180 185 184 190 193 192 188 173 178 180 182 184 182 179 176 177 175 170 166 184 162 168 170 182 160 167 157 148 200 188 182 224 216 220 204 205 195 192 192 186 172 172 170 168 169 172 168 169 155 166 166 178 163 154 109 73 66 41 33 27 14 152 162 160 155 97 86 81 32 34 33 25 13 19 20 15 10 6 12 9 10 10 7 7 7
186 186 186 195 198 197 191 180 179 183 186 184 184 184 178 180 182 183 167 163 181 177 186 193 179 160 178 197 184 186 220 214 194 200 197 200 196 197 193 188 177 181 181 187 180 173 170 165 165 164 178 183 173 167 150 120 90 57 49 37 31 32 145 132 128 110 89 69 53 21 40 38 15 19 14 8 4 10 6 8 11 9 9 6 5
190 191 192 199 200 202 198 189 180 185 189 193 191 188 182 187 184 183 183 174 179 162 185 195 209 200 175 157 190 202 228 120 151 172 181 194 202 204 192 191 183 185 195 190 178 173 165 157 174 168 173 180 185 167 134 141 137 108 71 58 54 41 43 119 134 127 140 52 42 344 46 39 22 20 14 3 360 3 3 7 10 10 8 7 4
202 201 199 197 201 202 201 194 185 184 192 200 199 186 189 188 187 190 189 194 176 151 175 200 210 218 245 270 355 190 189 145 160 178 169 207 193 204 197 199 187 186 199 185 183 181 176 172 170 173 173 180 181 166 155 171 158 156 111 97 90 80 65 51 69 119 122 73 8 32 9 40 21 18 9 352 360 355 5 9 10 8 6 3 359
209 209 205 203 206 206 205 204 193 192 193 201 201 198 191 192 185 195 194 190 178 180 179 178 190 236 221 201 193 191 268 144 195 115 180 191 209 193 206 196 199 196 203 195 187 192 178 172 175 167 177 181 175 175 169 131 67 82 105 106 100 99 92 78 55 46 55 68 59 29 69 37 20 15 7 352 345 351 3 4 4 360 357 358 359
214 212 209 205 204 209 210 209 206 202 194 207 206 201 185 192 194 197 196 196 194 192 182 175 179 205 203 187 193 207 272 291 278 191 167 156 193 202 205 197 203 208 207 205 196 194 179 180 169 174 173 180 174 182 160 135 138 127 120 124 110 104 99 96 93 74 43 29 34 354 6 353 7 4 355 345 342 351 354 352 352 351 349 356 359
216 219 214 212 205 210 211 210 209 210 205 209 209 207 199 184 189 193 200 200 202 201 188 187 189 191 175 205 200 200 210 230 237 211 214 172 173 177 188 184 206 215 212 209 204 195 188 178 172 171 180 172 179 181 162 158 162 146 139 137 121 102 93 94 100 103 79 44 37 357 341 8 349 348 325 333 339 346 346 348 347 349 353 354 355
211 216 217 214 212 208 213 213 213 212 211 210 212 216 211 202 196 199 205 206 205 206 204 193 196 198 192 182 195 202 210 208 219 215 251 232 216 182 175 174 191 216 198 204 202 194 182 176 168 180 178 176 180 176 177 170 166 143 147 146 134 116 101 97 102 105 101 90 72 11 346 345 316 320 315 316 327 330 346 344 338 348 345 342 341
209 212 215 216 216 213 214 216 215 214 214 212 211 209 202 195 193 203 207 211 211 210 212 208 193 203 197 197 196 195 197 200 204 205 204 195 217 188 176 186 189 169 196 196 190 188 179 174 175 180 187 178 181 178 181 179 150 143 150 158 151 140 125 115 114 126 135 131 158 173 267 311 321 296 302 295 301 308 317 328 326 325 328 324 325
220 219 218 216 216 218 217 222 219 217 216 212 210 211 212 201 195 192 201 209 217 214 217 219 206 203 208 206 208 207 211 211 209 201 197 212 200 207 175 167 194 180 148 175 184 187 183 183 183 181 186 183 181 182 181 167 133 142 153 163 160 155 143 126 133 144 163 174 189 215 227 244 257 276 287 279 276 278 280 287 296 302 301 304 308
230 225 224 216 213 219 217 216 221 219 220 217 214 212 214 208 201 203 206 207 211 212 213 213 212 208 205 210 212 208 214 218 214 206 209 206 203 215 187 163 166 145 159 162 182 190 184 186 181 183 181 184 179 182 182 165 149 162 162 170 166 163 149 137 140 163 176 189 204 220 224 232 245 252 265 256 241 260 259 254 270 282 286 293 302
266 244 232 215 215 221 222 223 224 224 220 221 217 213 212 215 205 207 207 211 211 217 223 221 221 222 215 210 212 211 216 214 216 215 206 200 210 208 163 171 175 147 136 181 179 165 203 193 183 181 181 183 181 181 181 172 156 173 175 172 179 172 171 155 154 174 190 204 220 227 227 228 237 247 246 249 241 236 244 253 247 250 268 293 320
291 282 254 227 218 222 228 230 227 227 223 220 218 220 215 220 216 215 213 211 215 216 222 221 223 221 221 219 213 216 212 210 212 219 212 207 208 201 173 158 175 148 163 185 183 205 173 180 175 182 182 181 181 185 178 181 152 167 178 184 172 180 179 173 168 179 199 219 226 232 235 229 235 243 239 242 243 240 243 244 255 273 295 311 323
301 301 288 246 226 225 230 232 234 231 228 226 220 217 213 220 226 222 221 214 218 218 222 221 225 223 224 226 226 223 218 214 214 218 215 207 208 206 194 182 189 205 171 182 199 221 180 151 181 189 179 184 182 182 184 165 152 166 177 193 185 173 187 175 171 192 204 217 222 226 229 232 233 239 241 242 244 249 247 257 272 290 307 307 306
284 296 296 270 244 232 233 235 234 234 232 231 227 224 221 223 225 226 227 220 221 221 220 221 224 223 227 225 227 229 223 222 224 221 219 218 215 213 209 208 199 216 196 206 208 193 192 174 171 193 183 184 179 181 180 175 158 162 182 196 193 173 176 174 174 197 214 217 219 222 224 229 237 238 241 244 247 254 259 261 267 282 290 300 296
297 286 277 273 268 249 241 239 237 234 233 232 230 228 225 228 227 230 231 223 227 230 225 226 227 225 229 230 230 234 230 224 227 223 224 222 219 218 221 218 207 219 217 208 223 187 180 190 179 160 183 184 179 180 177 183 158 167 182 197 183 189 168 172 180 207 217 220 219 219 220 225 231 235 238 244 249 253 261 267 269 275 282 289 298
300 295 285 275 266 257 245 241 240 236 232 232 228 229 222 229 227 232 227 229 233 231 228 224 228 225 228 230 229 232 229 230 230 227 226 223 223 222 225 220 219 223 226 226 243 193 164 182 193 162 169 179 178 170 168 184 159 174 182 180 184 169 153 171 195 220 227 223 218 219 220 225 230 232 236 242 246 252 259 262 270 277 284 288 288
303 297 288 281 275 269 255 243 236 235 235 232 229 230 228 231 230 229 227 223 232 235 233 226 227 227 229 231 228 226 224 227 231 227 224 223 221 223 223 221 224 222 219 228 236 214 158 167 173 150 162 169 172 169 174 167 162 178 180 173 164 134 158 193 213 223 226 224 221 218 221 224 228 231 234 237 240 250 259 267 271 278 283 281 276
311 299 292 289 288 282 273 261 248 240 235 234 229 230 232 234 232 233 234 230 231 234 231 232 226 227 230 232 231 228 222 224 227 224 225 221 219 226 224 223 225 218 213 222 229 210 32 93 145 148 158 156 170 177 171 165 158 184 188 175 167 157 165 200 206 215 220 224 223 222 224 228 230 232 234 234 238 246 254 258 264 268 270 271 272
326 316 310 301 292 287 284 280 273 259 247 239 232 228 231 234 235 231 235 235 236 236 234 236 228 224 227 233 236 232 224 228 229 225 223 219 218 221 223 219 224 221 211 217 226 216 173 146 129 121 149 168 168 175 180 177 172 174 183 181 171 157 170 171 214 216 216 221 226 227 230 231 234 234 233 234 237 242 245 250 255 260 265 272 277
325 318 314 319 313 309 301 290 281 275 267 259 247 235 232 233 237 235 231 232 235 238 237 235 233 230 231 233 233 229 223 227 230 230 226 221 216 217 220 215 221 220 212 212 215 223 180 183 157 155 166 178 183 178 182 184 167 170 176 185 175 170 165 186 199 223 223 217 223 227 230 235 238 239 237 234 237 239 243 247 253 258 266 272 277
329 322 323 320 318 313 310 300 291 284 276 266 260 250 245 241 240 240 235 231 234 239 241 241 237 234 234 235 235 229 224 230 232 228 226 223 219 218 218 216 218 219 213 207 215 220 186 168 179 173 172 167 185 163 170 164 165 174 177 166 168 174 173 190 207 214 224 221 221 225 231 236 240 241 238 239 240 241 242 247 251 257 263 269 275
330 332 327 332 327 320 310 305 301 294 287 279 273 266 257 247 246 247 245 239 236 237 239 242 242 237 237 237 239 229 224 231 235 229 226 222 223 221 222 219 215 215 208 204 211 212 195 183 163 167 156 162 164 157 165 166 165 165 166 175 176 176 188 191 196 217 227 225 223 227 232 237 242 244 243 241 242 243 246 250 255 259 264 269 272
333 333 330 331 330 319 313 301 294 294 294 289 282 278 273 265 259 254 252 249 246 242 240 241 242 240 242 241 240 233 228 229 235 233 229 225 224 224 226 224 218 212 208 207 205 208 210 191 167 153 169 165 170 177 174 170 169 166 171 180 178 186 183 197 203 198 200 209 206 224 232 236 241 242 240 240 241 245 247 252 257 262 266 268 268
334 336 333 326 315 305 298 294 287 286 286 286 285 282 279 275 271 270 266 259 254 249 248 247 243 242 241 242 242 235 234 234 237 235 231 229 226 227 226 224 220 215 213 208 199 201 207 190 181 175 165 178 176 173 172 172 177 177 172 167 196 193 193 195 209 196 191 204 216 218 217 215 222 226 232 234 238 243 249 256 263 266 267 265 265
331 336 329 325 317 305 293 287 282 277 269 271 273 275 276 277 276 272 269 267 265 260 255 251 248 245 241 241 241 238 237 239 238 237 228 229 226 231 229 224 219 216 216 210 201 202 203 200 186 180 175 168 173 158 142 162 174 192 194 183 183 184 197 199 205 194 188 193 207 209 220 218 221 222 221 227 235 243 251 260 264 265 264 262 261
308 309 309 312 310 305 298 291 287 277 266 255 256 264 272 271 266 267 269 270 269 268 265 259 253 250 248 244 240 237 236 237 236 235 232 227 226 230 228 218 216 213 215 213 206 204 206 205 195 178 172 177 181 168 170 179 191 190 178 182 199 194 182 186 204 201 186 190 203 203 203 202 211 215 208 216 229 238 246 247 251 254 251 253 251
310 301 291 288 288 288 295 293 285 277 267 255 244 246 251 258 265 266 265 262 264 267 270 270 265 257 253 249 242 241 238 235 234 234 234 233 231 230 228 212 209 213 213 212 210 208 206 207 204 187 187 196 188 188 186 192 182 158 172 181 189 187 164 196 199 198 186 184 193 207 202 185 198 205 197 202 206 209 202 214 209 211 217 228 248
305 303 302 299 289 290 290 288 289 285 274 265 263 257 252 256 257 258 257 259 257 259 261 264 267 266 262 256 253 245 239 239 238 235 232 232 234 234 232 224 213 209 209 212 215 206 204 211 209 201 203 203 197 191 189 177 176 184 182 183 182 172 175 176 200 182 188 180 200 202 204 186 181 201 207 204 202 193 202 209 215 215 226 240 251
308 309 303 297 298 297 289 288 286 283 285 278 274 273 271 273 267 260 256 255 253 254 256 258 261 262 262 263 261 256 242 240 238 234 233 231 230 231 231 229 226 219 214 211 211 211 208 212 211 213 209 209 196 185 183 172 180 182 187 185 188 189 182 195 200 195 179 173 189 197 202 160 168 201 217 210 202 204 208 208 212 221 234 245 256
302 302 304 305 300 296 293 293 290 285 279 273 274 277 274 271 271 267 261 255 252 252 252 254 257 258 260 261 263 256 252 241 233 232 233 232 230 228 228 230 229 227 224 221 220 216 207 213 214 216 212 205 196 197 190 181 173 182 183 183 189 196 197 199 204 146 155 169 178 194 192 172 169 198 217 211 192 199 212 220 223 227 237 249 260
289 291 290 290 293 296 297 298 294 288 280 278 278 274 273 272 273 271 260 259 256 254 254 252 253 255 255 258 261 259 253 244 237 234 231 229 226 225 228 227 228 231 230 228 226 224 219 217 218 223 216 196 203 201 188 178 178 186 181 188 185 186 192 196 167 130 145 167 183 171 171 187 166 189 223 218 174 197 206 222 230 245 256 262 268
287 290 292 290 285 284 290 293 291 287 283 277 276 273 274 275 274 274 265 261 259 256 255 253 252 252 252 252 254 258 255 241 239 238 232 228 224 222 223 225 226 225 223 226 226 226 224 225 228 231 223 201 209 200 180 186 190 191 190 188 180 176 141 92 87 123 129 166 178 177 184 168 167 185 217 204 186 194 217 241 252 256 264 270 272
282 285 282 283 290 291 285 279 280 282 282 280 278 274 272 274 276 275 270 264 262 259 258 255 252 250 249 247 251 253 252 248 244 238 230 223 217 220 225 228 229 228 229 225 223 223 225 223 224 224 224 206 190 180 179 176 176 152 117 107 109 131 140 151 164 163 162 178 179 188 164 174 184 175 195 152 189 223 224 208 256 269 274 277 276
283 282 284 284 283 282 286 284 279 277 275 274 275 273 272 272 273 268 269 268 266 264 261 259 256 253 248 243 244 250 250 248 238 227 219 214 219 219 223 227 228 229 234 227 214 218 214 207 213 213 207 191 183 175 177 172 168 154 142 145 171 161 157 175 185 172 189 178 183 193 179 165 185 165 180 201 207 251 249 248 242 277 284 280 275
277 281 283 284 282 278 276 278 274 274 276 272 272 272 271 271 265 262 263 264 263 263 266 262 258 255 250 244 237 245 250 249 242 219 218 209 221 223 224 225 229 233 235 226 215 215 196 188 187 189 186 186 184 181 180 176 167 160 166 183 175 157 181 188 184 182 168 175 189 175 167 189 140 149 138 248 194 243 246 258 272 288 294 288 279
271 278 276 276 280 280 276 273 274 272 271 274 273 270 267 265 262 254 256 259 261 261 261 263 260 257 259 251 240 241 247 248 238 223 219 211 220 222 225 224 230 233 232 212 204 205 200 199 202 187 196 189 187 182 185 179 172 174 185 179 162 173 182 181 167 125 161 227 188 176 152 186 125 198 122 63 321 256 193 260 287 295 253 207 331